Flag for U.S.A. Weather past 2 weeks in Vevay, Indiana, U.S.A.

Now
69 °F

Passing clouds.


Feels Like: 69 °F
Forecast: 43 / 76 °F
Wind: 12 mph from West

Location: Cincinnati / Northern Kentucky International Airport

Current Time: May 22, 2015 at 2:11:47 PM

Latest Report: May 22, 2015 at 12:52 PM


Visibility: 10 mi

Pressure: 30.21 "Hg

Humidity: 47%

Dew point: 48 °F

Location of VevayLocation

Historic Weather in Vevay — Graph

°F

Vevay temperature yesterday

Maximum temperature yesterday: 58 °F (at 6:52 PM)
Minimum temperature yesterday: 48 °F (at 11:52 PM)
Average temperature yesterday: 53 °F

Past Weeks' High & Low Weather Summary

 TemperatureHumidityPressure
High86 °F (May 7, 1:52 PM)97% (May 17, 4:52 AM)30.38 "Hg (May 17, 4:52 AM)
Low43 °F (May 13, 5:52 AM)35% (May 8, 3:52 PM)29.86 "Hg (May 11, 5:52 PM)
Average66 °F68%30.10 "Hg
* Reported May 7 12:52 PM — May 22 12:52 PM, Vevay, Weather by CustomWeather, © 2015

Note: Actual official high and low records may vary slightly from our data, if they occured in-between our weather recording intervals... More about our weather records

Advertising

Vevay weather history for previous 24 hours

 ConditionsComfort  
Time TempWeatherWind HumidityBarometerVisibility
12:52 PM
Fri, May 22
69 °FPassing clouds.12 mph47%30.21 "Hg10 mi
11:52 AM68 °FSunny.10 mph51%30.22 "Hg10 mi
9:52 AM59 °FSunny.8 mph62%30.22 "Hg10 mi
8:52 AM55 °FSunny.7 mph69%30.20 "Hg10 mi
7:52 AM48 °FSunny.6 mph86%30.20 "Hg9 mi
6:52 AM43 °FFog.3 mph93%30.18 "Hg5 mi
5:52 AM45 °FClear.6 mph90%30.16 "Hg7 mi
4:52 AM44 °FClear.6 mph89%30.14 "Hg9 mi
3:52 AM44 °FClear.5 mph89%30.13 "Hg10 mi
2:52 AM47 °FClear.5 mph80%30.13 "Hg10 mi
1:52 AM47 °FClear.5 mph80%30.13 "Hg10 mi
12:52 AM47 °FClear.5 mph80%30.13 "Hg10 mi
11:52 PM
Thu, May 21
48 °FClear.5 mph77%30.13 "Hg10 mi
10:52 PM49 °FClear.3 mph74%30.13 "Hg10 mi
9:52 PM51 °FClear.5 mph69%30.10 "Hg10 mi
8:52 PM53 °FSunny.5 mph64%30.09 "Hg10 mi
7:52 PM56 °FPassing clouds.9 mph58%30.08 "Hg10 mi
6:52 PM58 °FOvercast.10 mph56%30.08 "Hg10 mi
5:52 PM57 °FMostly cloudy.14 mph55%30.08 "Hg10 mi
4:52 PM57 °FMostly cloudy.14 mph53%30.09 "Hg10 mi
3:52 PM56 °FMostly cloudy.13 mph55%30.08 "Hg10 mi
2:52 PM55 °FMore clouds than sun.13 mph62%30.06 "Hg10 mi
Weather by CustomWeather, © 2015

See weather overviewHow to use our weather pages